| time (UTC) | temp C | wind direction | speed KPH | gust KPH | rain 1hr cm | rain 24hr cm | rain mn cm | humidity % | barometer mb |
| 20260507150047 | 12 | 350 | 8.0 | 25.7 | 0.00 | 0.74 | 0.00 | 45 | 1010.3 |
| 20260507145532 | 12 | 301 | 11.3 | 25.7 | 0.00 | 0.74 | 0.00 | 43 | 1010.3 |
| 20260507145029 | 12 | 359 | 9.7 | 20.9 | 0.00 | 0.74 | 0.00 | 46 | 1010.4 |
| 20260507144550 | 12 | 326 | 6.4 | 22.5 | 0.00 | 0.74 | 0.00 | 48 | 1010.5 |
| 20260507144030 | 12 | 309 | 12.9 | 22.5 | 0.00 | 0.74 | 0.00 | 42 | 1010.5 |
| 20260507143532 | 12 | 331 | 8.0 | 22.5 | 0.00 | 0.74 | 0.00 | 48 | 1010.6 |
| 20260507143042 | 12 | 329 | 8.0 | 22.5 | 0.00 | 0.74 | 0.00 | 43 | 1010.6 |
| 20260507142530 | 12 | 284 | 11.3 | 27.4 | 0.00 | 0.74 | 0.00 | 45 | 1010.6 |
| 20260507142029 | 12 | 354 | 8.0 | 27.4 | 0.00 | 0.74 | 0.00 | 48 | 1010.5 |
| 20260507141542 | 12 | 304 | 12.9 | 25.7 | 0.00 | 0.74 | 0.00 | 43 | 1010.4 |
| 20260507141033 | 12 | 23 | 6.4 | 16.1 | 0.00 | 0.74 | 0.00 | 44 | 1010.4 |
| 20260507140530 | 12 | 314 | 4.8 | 24.1 | 0.00 | 0.74 | 0.00 | 46 | 1010.4 |
| 20260507140104 | 12 | 271 | 6.4 | 24.1 | 0.00 | 0.74 | 0.00 | 47 | 1010.4 |
| 20260507135530 | 12 | 356 | 3.2 | 14.5 | 0.00 | 0.74 | 0.00 | 54 | 1010.2 |
| 20260507135030 | 12 | 159 | 4.8 | 16.1 | 0.00 | 0.74 | 0.00 | 46 | 1010.2 |
| 20260507134541 | 11 | 249 | 9.7 | 19.3 | 0.00 | 0.74 | 0.00 | 46 | 1010.2 |
| 20260507134030 | 12 | 342 | 4.8 | 19.3 | 0.00 | 0.74 | 0.00 | 48 | 1010.2 |
| 20260507133530 | 11 | 296 | 4.8 | 16.1 | 0.00 | 0.74 | 0.00 | 51 | 1010.2 |
| 20260507133048 | 11 | 347 | 8.0 | 16.1 | 0.00 | 0.74 | 0.00 | 50 | 1010.1 |
| 20260507132529 | 11 | 358 | 3.2 | 22.5 | 0.00 | 0.74 | 0.00 | 49 | 1010.2 |
| 20260507132029 | 11 | 274 | 9.7 | 22.5 | 0.00 | 0.74 | 0.00 | 49 | 1010.2 |
| 20260507131552 | 11 | 336 | 4.8 | 16.1 | 0.00 | 0.74 | 0.00 | 49 | 1010.2 |
| 20260507131031 | 11 | 313 | 8.0 | 16.1 | 0.00 | 0.74 | 0.00 | 51 | 1010.1 |
| 20260507130534 | 11 | 297 | 3.2 | 24.1 | 0.00 | 0.74 | 0.00 | 55 | 1009.9 |
| 20260507130051 | 11 | 316 | 6.4 | 24.1 | 0.00 | 0.74 | 0.00 | 56 | 1010.2 |
| 20260507125534 | 11 | 350 | 4.8 | 14.5 | 0.00 | 0.74 | 0.00 | 55 | 1010.1 |
| 20260507125030 | 11 | 340 | 4.8 | 16.1 | 0.00 | 0.74 | 0.00 | 56 | 1010.0 |
| 20260507124552 | 10 | 297 | 4.8 | 16.1 | 0.00 | 0.74 | 0.00 | 56 | 1010.0 |
| 20260507124029 | 10 | 236 | 9.7 | 19.3 | 0.00 | 0.74 | 0.00 | 55 | 1010.1 |
| 20260507123531 | 10 | 295 | 8.0 | 22.5 | 0.00 | 0.74 | 0.00 | 59 | 1010.1 |
| 20260507123053 | 10 | 89 | 6.4 | 22.5 | 0.00 | 0.74 | 0.00 | 59 | 1010.2 |
| 20260507122533 | 10 | 340 | 6.4 | 20.9 | 0.00 | 0.74 | 0.00 | 58 | 1010.2 |
| 20260507122030 | 10 | 252 | 6.4 | 20.9 | 0.00 | 0.74 | 0.00 | 59 | 1010.2 |
| 20260507121542 | 10 | 284 | 8.0 | 20.9 | 0.00 | 0.74 | 0.00 | 59 | 1010.3 |
| 20260507121029 | 10 | 284 | 6.4 | 17.7 | 0.00 | 0.74 | 0.00 | 64 | 1010.2 |
| 20260507120530 | 10 | 281 | 4.8 | 17.7 | 0.00 | 0.74 | 0.00 | 64 | 1010.1 |
| 20260507120048 | 10 | 293 | 4.8 | 17.7 | 0.00 | 0.74 | 0.00 | 68 | 1010.1 |
| 20260507115530 | 10 | 334 | 4.8 | 19.3 | 0.00 | 0.74 | 0.00 | 66 | 1010.2 |
| 20260507115030 | 9 | 347 | 9.7 | 19.3 | 0.00 | 0.74 | 0.00 | 67 | 1010.0 |
| 20260507114547 | 9 | 36 | 6.4 | 19.3 | 0.00 | 0.74 | 0.00 | 71 | 1009.9 |
| 20260507114031 | 9 | 347 | 6.4 | 19.3 | 0.00 | 0.74 | 0.00 | 73 | 1009.9 |
| 20260507113530 | 9 | 307 | 8.0 | 14.5 | 0.00 | 0.74 | 0.00 | 75 | 1009.8 |
| 20260507113044 | 9 | 274 | 6.4 | 14.5 | 0.00 | 0.74 | 0.00 | 77 | 1009.9 |
| 20260507112531 | 8 | 299 | 4.8 | 12.9 | 0.00 | 0.74 | 0.00 | 78 | 1009.7 |
| 20260507112030 | 8 | 344 | 4.8 | 12.9 | 0.00 | 0.74 | 0.00 | 80 | 1009.7 |
| 20260507111545 | 8 | 333 | 1.6 | 16.1 | 0.00 | 0.74 | 0.00 | 80 | 1009.6 |
| 20260507111029 | 8 | 266 | 3.2 | 16.1 | 0.00 | 0.74 | 0.00 | 81 | 1009.4 |
| 20260507110529 | 8 | 315 | 4.8 | 16.1 | 0.00 | 0.74 | 0.00 | 81 | 1009.4 |
| 20260507110043 | 8 | 329 | 3.2 | 14.5 | 0.00 | 0.74 | 0.00 | 81 | 1009.5 |
| 20260507105531 | 8 | 340 | 4.8 | 16.1 | 0.00 | 0.74 | 0.00 | 80 | 1009.4 |
| 20260507105030 | 8 | 347 | 6.4 | 16.1 | 0.00 | 0.74 | 0.00 | 79 | 1009.3 |
| 20260507104541 | 8 | 326 | 4.8 | 12.9 | 0.00 | 0.74 | 0.00 | 80 | 1009.3 |
| 20260507104029 | 8 | 17 | 1.6 | 12.9 | 0.00 | 0.74 | 0.00 | 81 | 1009.3 |
| 20260507103529 | 8 | 333 | 3.2 | 12.9 | 0.00 | 0.74 | 0.00 | 81 | 1009.3 |
| 20260507103035 | 8 | 226 | 3.2 | 9.7 | 0.00 | 0.74 | 0.00 | 81 | 1008.9 |
| 20260507102530 | 8 | 335 | 1.6 | 9.7 | 0.00 | 0.74 | 0.00 | 82 | 1008.9 |
| 20260507102029 | 8 | 0 | 0.0 | 8.0 | 0.00 | 0.74 | 0.00 | 82 | 1008.9 |
| 20260507101547 | 8 | 335 | 1.6 | 6.4 | 0.00 | 0.74 | 0.00 | 82 | 1008.8 |
| 20260507101029 | 8 | 0 | 1.6 | 9.7 | 0.00 | 0.74 | 0.00 | 81 | 1008.9 |
| 20260507100529 | 8 | 296 | 1.6 | 9.7 | 0.00 | 0.74 | 0.00 | 81 | 1008.8 |
| 20260507100045 | 8 | 274 | 3.2 | 8.0 | 0.00 | 0.74 | 0.00 | 81 | 1008.7 |
| 20260507095530 | 8 | 266 | 3.2 | 8.0 | 0.00 | 0.74 | 0.00 | 82 | 1008.7 |
| 20260507095029 | 8 | 283 | 3.2 | 8.0 | 0.00 | 0.74 | 0.00 | 82 | 1008.6 |
| 20260507094541 | 8 | 255 | 0.0 | 6.4 | 0.00 | 0.74 | 0.00 | 83 | 1008.7 |
| 20260507094029 | 8 | 282 | 1.6 | 6.4 | 0.00 | 0.74 | 0.00 | 83 | 1008.7 |
| 20260507093529 | 8 | 342 | 1.6 | 8.0 | 0.00 | 0.74 | 0.00 | 84 | 1008.7 |
| 20260507093042 | 8 | 295 | 1.6 | 9.7 | 0.00 | 0.74 | 0.00 | 84 | 1008.7 |
| 20260507092532 | 8 | 334 | 3.2 | 9.7 | 0.00 | 0.74 | 0.00 | 84 | 1008.7 |
| 20260507092029 | 8 | 0 | 0.0 | 6.4 | 0.00 | 0.74 | 0.00 | 86 | 1008.8 |
| 20260507091539 | 8 | 14 | 0.0 | 4.8 | 0.00 | 0.74 | 0.00 | 86 | 1008.7 |
| 20260507091029 | 8 | 0 | 0.0 | 4.8 | 0.00 | 0.74 | 0.00 | 86 | 1008.8 |
| 20260507090528 | 8 | 335 | 0.0 | 6.4 | 0.00 | 0.74 | 0.00 | 86 | 1008.9 |
| 20260507090041 | 8 | 0 | 0.0 | 8.0 | 0.00 | 0.74 | 0.00 | 87 | 1008.9 |
| 20260507085529 | 8 | 291 | 0.0 | 8.0 | 0.00 | 0.74 | 0.00 | 87 | 1009.1 |
| 20260507085030 | 9 | 0 | 0.0 | 8.0 | 0.00 | 0.74 | 0.00 | 87 | 1009.0 |
| 20260507084537 | 9 | 0 | 1.6 | 8.0 | 0.00 | 0.74 | 0.00 | 88 | 1008.8 |
| 20260507084036 | 9 | 288 | 1.6 | 6.4 | 0.00 | 0.74 | 0.00 | 88 | 1009.0 |
| 20260507083530 | 8 | 0 | 1.6 | 6.4 | 0.00 | 0.74 | 0.00 | 89 | 1009.1 |
| 20260507083049 | 8 | 0 | 0.0 | 3.2 | 0.00 | 0.74 | 0.00 | 90 | 1008.8 |
| 20260507082529 | 8 | 0 | 0.0 | 3.2 | 0.00 | 0.74 | 0.00 | 91 | 1009.1 |
| 20260507082029 | 8 | 0 | 0.0 | 3.2 | 0.00 | 0.74 | 0.00 | 92 | 1009.1 |
| 20260507081541 | 8 | 0 | 0.0 | 3.2 | 0.00 | 0.74 | 0.00 | 92 | 1009.2 |
| 20260507081030 | 8 | 270 | 0.0 | 3.2 | 0.00 | 0.74 | 0.00 | 93 | 1009.4 |
| 20260507080529 | 8 | 0 | 0.0 | 1.6 | 0.00 | 0.74 | 0.00 | 93 | 1009.1 |
| 20260507080053 | 9 | 0 | 0.0 | 1.6 | 0.00 | 0.74 | 0.00 | 93 | 1009.1 |
| 20260507075529 | 9 | 0 | 0.0 | 1.6 | 0.00 | 0.74 | 0.00 | 93 | 1009.1 |
| 20260507075029 | 9 | 0 | 0.0 | 0.0 | 0.00 | 0.74 | 0.00 | 93 | 1008.9 |
| 20260507074545 | 9 | 0 | 0.0 | 0.0 | 0.00 | 0.74 | 0.00 | 92 | 1009.0 |
| 20260507074029 | 9 | 0 | 0.0 | 0.0 | 0.00 | 0.74 | 0.00 | 92 | 1008.9 |
| 20260507073530 | 9 | 0 | 0.0 | 0.0 | 0.00 | 0.74 | 0.00 | 92 | 1009.1 |
| 20260507073037 | 9 | 0 | 0.0 | 0.0 | 0.00 | 0.74 | 0.00 | 91 | 1009.2 |
| 20260507072529 | 9 | 0 | 0.0 | 1.6 | 0.00 | 0.74 | 0.00 | 91 | 1008.8 |
| 20260507072028 | 9 | 0 | 0.0 | 1.6 | 0.00 | 0.74 | 0.00 | 90 | 1009.0 |
| 20260507071552 | 9 | 7 | 0.0 | 1.6 | 0.00 | 0.74 | 0.00 | 89 | 1008.6 |
| 20260507071032 | 10 | 0 | 0.0 | 3.2 | 0.00 | 0.74 | 0.00 | 88 | 1008.5 |
| 20260507070530 | 10 | 0 | 0.0 | 4.8 | 0.00 | 0.74 | 0.00 | 88 | 1008.7 |
| 20260507070039 | 10 | 0 | 0.0 | 9.7 | 0.00 | 0.74 | 0.00 | 87 | 1008.4 |
| 20260507065529 | 10 | 338 | 1.6 | 9.7 | 0.00 | 0.74 | 0.00 | 87 | 1008.7 |
| 20260507065029 | 10 | 264 | 1.6 | 9.7 | 0.00 | 0.74 | 0.00 | 87 | 1008.9 |
| 20260507064551 | 10 | 288 | 0.0 | 8.0 | 0.00 | 0.74 | 0.00 | 87 | 1008.8 |
| 20260507064030 | 10 | 307 | 1.6 | 8.0 | 0.00 | 0.74 | 0.00 | 87 | 1008.5 |
| 20260507063529 | 10 | 283 | 3.2 | 8.0 | 0.00 | 0.74 | 0.00 | 87 | 1008.6 |
| 20260507063046 | 10 | 315 | 1.6 | 6.4 | 0.00 | 0.74 | 0.00 | 87 | 1008.5 |
| 20260507062529 | 10 | 269 | 1.6 | 6.4 | 0.00 | 0.74 | 0.00 | 87 | 1008.4 |
| 20260507062029 | 10 | 317 | 1.6 | 6.4 | 0.00 | 0.74 | 0.00 | 87 | 1008.1 |
| 20260507061541 | 10 | 306 | 1.6 | 6.4 | 0.00 | 0.74 | 0.00 | 86 | 1008.0 |
| 20260507061029 | 10 | 323 | 1.6 | 6.4 | 0.00 | 0.74 | 0.00 | 86 | 1008.3 |
| 20260507060529 | 10 | 314 | 1.6 | 4.8 | 0.00 | 0.74 | 0.00 | 86 | 1008.3 |
| 20260507060043 | 10 | 0 | 1.6 | 8.0 | 0.00 | 0.74 | 0.00 | 86 | 1008.3 |
| 20260507055529 | 10 | 0 | 1.6 | 8.0 | 0.00 | 0.74 | 0.00 | 85 | 1008.1 |
| 20260507055031 | 10 | 298 | 1.6 | 8.0 | 0.00 | 0.74 | 0.00 | 85 | 1008.6 |
| 20260507054549 | 10 | 0 | 1.6 | 8.0 | 0.00 | 0.74 | 0.00 | 85 | 1008.8 |
| 20260507054029 | 10 | 314 | 3.2 | 8.0 | 0.00 | 0.74 | 0.00 | 85 | 1008.7 |
| 20260507053529 | 10 | 259 | 0.0 | 8.0 | 0.00 | 0.74 | 0.00 | 85 | 1008.8 |
| 20260507053045 | 10 | 0 | 1.6 | 8.0 | 0.00 | 0.74 | 0.00 | 86 | 1008.6 |
| 20260507052529 | 10 | 267 | 3.2 | 8.0 | 0.00 | 0.74 | 0.00 | 85 | 1008.8 |
| 20260507052029 | 10 | 298 | 3.2 | 6.4 | 0.00 | 0.74 | 0.00 | 87 | 1009.0 |
| 20260507051536 | 10 | 340 | 0.0 | 3.2 | 0.00 | 0.74 | 0.00 | 86 | 1008.8 |
| 20260507051028 | 10 | 0 | 0.0 | 4.8 | 0.00 | 0.74 | 0.00 | 86 | 1009.0 |
| 20260507050529 | 10 | 262 | 1.6 | 4.8 | 0.00 | 0.74 | 0.00 | 87 | 1009.0 |
| 20260507050044 | 10 | 314 | 0.0 | 4.8 | 0.00 | 0.74 | 0.00 | 87 | 1009.0 |
| 20260507045530 | 10 | 345 | 1.6 | 6.4 | 0.00 | 0.74 | 0.00 | 87 | 1009.0 |
| 20260507045030 | 10 | 359 | 1.6 | 6.4 | 0.00 | 0.74 | 0.00 | 86 | 1009.2 |
| 20260507044542 | 10 | 324 | 3.2 | 9.7 | 0.00 | 0.74 | 0.00 | 87 | 1009.2 |
| 20260507044029 | 10 | 343 | 3.2 | 9.7 | 0.00 | 0.74 | 0.00 | 87 | 1009.1 |
| 20260507043529 | 10 | 329 | 3.2 | 8.0 | 0.00 | 0.74 | 0.00 | 88 | 1009.2 |
| 20260507043040 | 10 | 0 | 0.0 | 1.6 | 0.00 | 0.74 | 0.00 | 92 | 1009.0 |
| 20260507042530 | 10 | 0 | 0.0 | 1.6 | 0.00 | 0.74 | 0.00 | 92 | 1009.0 |
| 20260507042029 | 10 | 0 | 0.0 | 0.0 | 0.00 | 0.74 | 0.00 | 91 | 1009.1 |
| 20260507041539 | 10 | 0 | 0.0 | 0.0 | 0.00 | 0.74 | 0.00 | 91 | 1008.8 |
| 20260507041030 | 10 | 0 | 0.0 | 1.6 | 0.00 | 0.74 | 0.00 | 90 | 1008.9 |
| 20260507040530 | 11 | 0 | 0.0 | 1.6 | 0.00 | 0.74 | 0.00 | 89 | 1008.9 |
| 20260507040057 | 11 | 0 | 0.0 | 1.6 | 0.00 | 0.74 | 0.00 | 90 | 1008.6 |
| 20260507035529 | 11 | 315 | 0.0 | 3.2 | 0.00 | 0.74 | 0.74 | 90 | 1008.8 |
| 20260507035030 | 11 | 0 | 0.0 | 3.2 | 0.00 | 0.74 | 0.74 | 90 | 1008.7 |
| 20260507034549 | 11 | 307 | 0.0 | 3.2 | 0.00 | 0.74 | 0.74 | 90 | 1008.6 |
| 20260507034031 | 11 | 0 | 0.0 | 1.6 | 0.00 | 0.74 | 0.74 | 90 | 1008.7 |
| 20260507033532 | 11 | 338 | 0.0 | 3.2 | 0.00 | 0.74 | 0.74 | 90 | 1008.8 |
| 20260507033045 | 11 | 0 | 0.0 | 4.8 | 0.00 | 0.74 | 0.74 | 89 | 1008.9 |
| 20260507032529 | 11 | 0 | 0.0 | 4.8 | 0.00 | 0.74 | 0.74 | 88 | 1009.0 |
| 20260507032032 | 11 | 0 | 1.6 | 6.4 | 0.00 | 0.74 | 0.74 | 88 | 1009.0 |
| 20260507031541 | 11 | 0 | 1.6 | 6.4 | 0.00 | 0.74 | 0.74 | 87 | 1008.9 |
| 20260507031033 | 11 | 306 | 1.6 | 6.4 | 0.00 | 0.74 | 0.74 | 87 | 1008.9 |
| 20260507030529 | 11 | 0 | 0.0 | 4.8 | 0.00 | 0.74 | 0.74 | 88 | 1008.9 |
| 20260507030038 | 11 | 317 | 1.6 | 6.4 | 0.00 | 0.74 | 0.74 | 87 | 1009.0 |
| 20260507025529 | 11 | 0 | 1.6 | 6.4 | 0.00 | 0.74 | 0.74 | 87 | 1008.7 |
| 20260507025030 | 11 | 290 | 1.6 | 6.4 | 0.00 | 0.74 | 0.74 | 88 | 1008.8 |
| 20260507024544 | 11 | 302 | 0.0 | 3.2 | 0.00 | 0.74 | 0.74 | 88 | 1008.4 |
| 20260507024031 | 11 | 325 | 0.0 | 3.2 | 0.00 | 0.74 | 0.74 | 89 | 1008.5 |
| 20260507023530 | 12 | 0 | 0.0 | 8.0 | 0.00 | 0.74 | 0.74 | 90 | 1008.6 |
| 20260507023041 | 12 | 3 | 3.2 | 9.7 | 0.03 | 0.74 | 0.74 | 88 | 1008.5 |
| 20260507022530 | 12 | 288 | 3.2 | 9.7 | 0.03 | 0.74 | 0.74 | 89 | 1008.6 |
| 20260507022030 | 12 | 344 | 0.0 | 4.8 | 0.03 | 0.74 | 0.74 | 92 | 1008.5 |
| 20260507021544 | 12 | 0 | 0.0 | 1.6 | 0.03 | 0.74 | 0.74 | 92 | 1008.3 |
| 20260507021029 | 12 | 0 | 0.0 | 3.2 | 0.03 | 0.74 | 0.74 | 91 | 1008.2 |
| 20260507020530 | 12 | 0 | 0.0 | 11.3 | 0.03 | 0.74 | 0.74 | 90 | 1008.2 |
| 20260507020037 | 12 | 195 | 1.6 | 11.3 | 0.03 | 0.74 | 0.74 | 89 | 1008.0 |
| 20260507015531 | 12 | 320 | 4.8 | 16.1 | 0.03 | 0.74 | 0.74 | 89 | 1007.8 |
| 20260507015030 | 12 | 0 | 4.8 | 16.1 | 0.03 | 0.74 | 0.74 | 90 | 1007.7 |
| 20260507014559 | 12 | 23 | 3.2 | 12.9 | 0.03 | 0.74 | 0.74 | 91 | 1007.9 |
| 20260507014030 | 13 | 0 | 4.8 | 12.9 | 0.03 | 0.74 | 0.74 | 92 | 1007.9 |
| 20260507013525 | 13 | 317 | 0.0 | 3.2 | 0.03 | 0.74 | 0.74 | 94 | 1007.8 |
| 20260507013041 | 13 | 0 | 0.0 | 1.6 | 0.00 | 0.71 | 0.71 | 95 | 1007.9 |
| 20260507012526 | 13 | 0 | 0.0 | 1.6 | 0.03 | 0.71 | 0.71 | 95 | 1007.5 |
| 20260507012026 | 13 | 0 | 0.0 | 1.6 | 0.13 | 0.71 | 0.71 | 95 | 1007.4 |
| 20260507011554 | 13 | 0 | 0.0 | 3.2 | 0.13 | 0.71 | 0.71 | 95 | 1007.1 |
| 20260507011029 | 13 | 0 | 0.0 | 3.2 | 0.13 | 0.71 | 0.71 | 95 | 1007.1 |
| 20260507010529 | 13 | 140 | 1.6 | 3.2 | 0.13 | 0.71 | 0.71 | 94 | 1007.1 |
| 20260507010043 | 14 | 0 | 0.0 | 1.6 | 0.13 | 0.71 | 0.71 | 94 | 1007.1 |
| 20260507005530 | 14 | 252 | 0.0 | 3.2 | 0.13 | 0.71 | 0.71 | 94 | 1007.0 |
| 20260507005030 | 14 | 279 | 0.0 | 6.4 | 0.13 | 0.71 | 0.71 | 94 | 1007.0 |
| 20260507004542 | 14 | 11 | 0.0 | 6.4 | 0.13 | 0.71 | 0.71 | 95 | 1006.5 |
| 20260507004029 | 14 | 300 | 1.6 | 9.7 | 0.13 | 0.71 | 0.71 | 96 | 1006.8 |
| 20260507003530 | 14 | 276 | 0.0 | 9.7 | 0.13 | 0.71 | 0.71 | 96 | 1006.8 |
| 20260507003038 | 15 | 332 | 3.2 | 9.7 | 0.13 | 0.71 | 0.71 | 97 | 1006.7 |
| 20260507002529 | 15 | 346 | 1.6 | 4.8 | 0.08 | 0.66 | 0.66 | 97 | 1006.8 |
| 20260507002026 | 15 | 198 | 1.6 | 8.0 | 0.00 | 0.58 | 0.58 | 97 | 1006.4 |
| 20260507001555 | 15 | 146 | 1.6 | 8.0 | 0.00 | 0.58 | 0.58 | 97 | 1006.1 |
| 20260507001029 | 15 | 126 | 1.6 | 8.0 | 0.00 | 0.58 | 0.58 | 97 | 1006.1 |
| 20260507000529 | 15 | 158 | 1.6 | 8.0 | 0.00 | 0.58 | 0.58 | 97 | 1006.1 |
| 20260507000046 | 15 | 141 | 1.6 | 8.0 | 0.00 | 0.58 | 0.58 | 97 | 1006.0 |
| 20260506235530 | 15 | 150 | 1.6 | 8.0 | 0.00 | 0.58 | 0.58 | 97 | 1006.1 |
| 20260506235031 | 15 | 160 | 1.6 | 6.4 | 0.00 | 0.58 | 0.58 | 97 | 1006.0 |
| 20260506234546 | 15 | 145 | 1.6 | 6.4 | 0.00 | 0.58 | 0.58 | 97 | 1005.9 |
| 20260506234029 | 15 | 147 | 1.6 | 6.4 | 0.00 | 0.58 | 0.58 | 97 | 1005.8 |
| 20260506233530 | 15 | 136 | 0.0 | 6.4 | 0.00 | 0.58 | 0.58 | 97 | 1005.8 |
| 20260506233043 | 15 | 126 | 1.6 | 6.4 | 0.00 | 0.58 | 0.58 | 97 | 1005.8 |
| 20260506232529 | 15 | 142 | 1.6 | 6.4 | 0.00 | 0.58 | 0.58 | 97 | 1005.8 |
| 20260506232029 | 15 | 179 | 3.2 | 6.4 | 0.00 | 0.58 | 0.58 | 97 | 1005.8 |
| 20260506231542 | 15 | 145 | 1.6 | 6.4 | 0.00 | 0.58 | 0.58 | 97 | 1005.8 |
| 20260506231029 | 15 | 155 | 1.6 | 6.4 | 0.00 | 0.58 | 0.58 | 97 | 1005.7 |
| 20260506230530 | 15 | 145 | 3.2 | 6.4 | 0.00 | 0.58 | 0.58 | 96 | 1005.6 |
| 20260506230039 | 15 | 148 | 3.2 | 6.4 | 0.00 | 0.58 | 0.58 | 96 | 1005.6 |
| 20260506225531 | 15 | 181 | 1.6 | 4.8 | 0.03 | 0.58 | 0.58 | 96 | 1005.6 |
| 20260506225029 | 15 | 150 | 1.6 | 4.8 | 0.05 | 0.58 | 0.58 | 96 | 1005.7 |
| 20260506224538 | 15 | 154 | 1.6 | 6.4 | 0.05 | 0.58 | 0.58 | 96 | 1005.7 |
| 20260506224029 | 15 | 0 | 1.6 | 6.4 | 0.10 | 0.58 | 0.58 | 96 | 1005.7 |
| 20260506223529 | 15 | 0 | 1.6 | 4.8 | 0.13 | 0.58 | 0.58 | 96 | 1005.7 |
| 20260506223041 | 15 | 188 | 1.6 | 4.8 | 0.15 | 0.58 | 0.58 | 96 | 1005.8 |
| 20260506222526 | 15 | 0 | 1.6 | 4.8 | 0.18 | 0.58 | 0.58 | 96 | 1005.8 |
| 20260506222030 | 15 | 206 | 0.0 | 3.2 | 0.18 | 0.58 | 0.58 | 97 | 1005.7 |
| 20260506221544 | 15 | 175 | 0.0 | 6.4 | 0.18 | 0.58 | 0.58 | 97 | 1005.8 |
| 20260506221029 | 15 | 171 | 1.6 | 6.4 | 0.18 | 0.58 | 0.58 | 97 | 1005.7 |
| 20260506220529 | 15 | 186 | 0.0 | 4.8 | 0.18 | 0.58 | 0.58 | 96 | 1005.7 |
| 20260506220057 | 15 | 141 | 0.0 | 3.2 | 0.15 | 0.56 | 0.56 | 96 | 1005.7 |
| 20260506215529 | 15 | 152 | 0.0 | 3.2 | 0.15 | 0.56 | 0.56 | 96 | 1005.7 |
| 20260506215029 | 15 | 0 | 0.0 | 4.8 | 0.13 | 0.53 | 0.53 | 96 | 1005.9 |
| 20260506214542 | 15 | 128 | 0.0 | 4.8 | 0.13 | 0.53 | 0.53 | 96 | 1005.9 |
| 20260506214028 | 15 | 157 | 0.0 | 4.8 | 0.08 | 0.48 | 0.48 | 96 | 1005.8 |
| 20260506213532 | 15 | 153 | 1.6 | 4.8 | 0.05 | 0.46 | 0.46 | 96 | 1005.8 |
| 20260506213038 | 15 | 0 | 0.0 | 1.6 | 0.00 | 0.41 | 0.41 | 96 | 1005.7 |
| 20260506212532 | 15 | 0 | 0.0 | 3.2 | 0.03 | 0.41 | 0.41 | 96 | 1005.9 |
| 20260506212029 | 15 | 146 | 0.0 | 3.2 | 0.05 | 0.41 | 0.41 | 96 | 1005.9 |
| 20260506211537 | 15 | 147 | 0.0 | 3.2 | 0.05 | 0.41 | 0.41 | 96 | 1005.8 |
| 20260506211029 | 15 | 0 | 1.6 | 3.2 | 0.08 | 0.41 | 0.41 | 96 | 1005.9 |
| 20260506210531 | 15 | 168 | 0.0 | 3.2 | 0.08 | 0.41 | 0.41 | 96 | 1005.9 |
| 20260506210048 | 15 | 179 | 1.6 | 4.8 | 0.08 | 0.41 | 0.41 | 96 | 1006.0 |
| 20260506205528 | 15 | 133 | 0.0 | 6.4 | 0.08 | 0.41 | 0.41 | 96 | 1005.9 |
| 20260506205028 | 15 | 201 | 0.0 | 8.0 | 0.08 | 0.41 | 0.41 | 96 | 1005.8 |
| 20260506204544 | 15 | 145 | 1.6 | 8.0 | 0.08 | 0.41 | 0.41 | 95 | 1006.0 |
| 20260506204032 | 15 | 148 | 1.6 | 4.8 | 0.10 | 0.41 | 0.41 | 95 | 1005.9 |
| 20260506203529 | 15 | 134 | 1.6 | 8.0 | 0.10 | 0.41 | 0.41 | 96 | 1005.8 |
| 20260506203115 | 15 | 163 | 1.6 | 8.0 | 0.10 | 0.41 | 0.41 | 95 | 1005.9 |
| 20260506202530 | 15 | 141 | 1.6 | 8.0 | 0.08 | 0.38 | 0.38 | 95 | 1006.0 |
| 20260506202029 | 15 | 156 | 0.0 | 3.2 | 0.08 | 0.36 | 0.36 | 95 | 1006.1 |
| 20260506201546 | 15 | 144 | 0.0 | 3.2 | 0.08 | 0.36 | 0.36 | 95 | 1006.2 |
| 20260506201029 | 15 | 143 | 0.0 | 8.0 | 0.05 | 0.33 | 0.33 | 95 | 1006.3 |
| 20260506200529 | 15 | 147 | 1.6 | 8.0 | 0.05 | 0.33 | 0.33 | 95 | 1006.3 |
| 20260506200046 | 15 | 252 | 1.6 | 8.0 | 0.08 | 0.33 | 0.33 | 95 | 1006.2 |
| 20260506195529 | 15 | 138 | 1.6 | 4.8 | 0.10 | 0.33 | 0.33 | 95 | 1006.4 |
| 20260506195029 | 15 | 0 | 0.0 | 3.2 | 0.10 | 0.33 | 0.33 | 95 | 1006.5 |
| 20260506194538 | 15 | 219 | 0.0 | 3.2 | 0.13 | 0.33 | 0.33 | 95 | 1006.6 |
| 20260506194029 | 15 | 143 | 0.0 | 4.8 | 0.10 | 0.30 | 0.30 | 95 | 1006.7 |
| 20260506193528 | 15 | 226 | 0.0 | 4.8 | 0.10 | 0.30 | 0.30 | 95 | 1006.6 |
| 20260506193038 | 15 | 207 | 1.6 | 9.7 | 0.10 | 0.30 | 0.30 | 95 | 1006.8 |
| 20260506192529 | 15 | 197 | 3.2 | 9.7 | 0.13 | 0.30 | 0.30 | 94 | 1006.7 |
| 20260506192029 | 15 | 136 | 0.0 | 3.2 | 0.10 | 0.28 | 0.28 | 95 | 1006.8 |
| 20260506191545 | 15 | 139 | 1.6 | 4.8 | 0.10 | 0.28 | 0.28 | 94 | 1006.8 |
| 20260506191029 | 15 | 148 | 0.0 | 6.4 | 0.10 | 0.28 | 0.28 | 94 | 1006.8 |
| 20260506190529 | 15 | 147 | 1.6 | 6.4 | 0.10 | 0.28 | 0.28 | 94 | 1006.8 |
| 20260506190049 | 15 | 174 | 1.6 | 8.0 | 0.10 | 0.25 | 0.25 | 94 | 1006.8 |
| 20260506185531 | 15 | 143 | 1.6 | 8.0 | 0.08 | 0.23 | 0.23 | 94 | 1006.9 |
| 20260506185029 | 15 | 160 | 3.2 | 8.0 | 0.08 | 0.23 | 0.23 | 93 | 1007.0 |
| 20260506184552 | 15 | 114 | 1.6 | 4.8 | 0.05 | 0.20 | 0.20 | 93 | 1007.1 |
| 20260506184029 | 15 | 162 | 1.6 | 6.4 | 0.08 | 0.20 | 0.20 | 93 | 1007.1 |
| 20260506183529 | 15 | 150 | 1.6 | 6.4 | 0.08 | 0.20 | 0.20 | 93 | 1006.9 |
| 20260506183036 | 15 | 115 | 1.6 | 4.8 | 0.08 | 0.18 | 0.18 | 92 | 1007.0 |
| 20260506182528 | 16 | 203 | 1.6 | 6.4 | 0.08 | 0.18 | 0.18 | 92 | 1007.3 |
| 20260506182030 | 16 | 217 | 1.6 | 9.7 | 0.10 | 0.18 | 0.18 | 92 | 1007.3 |
| 20260506181537 | 16 | 139 | 1.6 | 9.7 | 0.13 | 0.18 | 0.18 | 91 | 1007.3 |
| 20260506181030 | 16 | 147 | 1.6 | 9.7 | 0.15 | 0.18 | 0.18 | 91 | 1007.3 |
| 20260506180530 | 16 | 192 | 0.0 | 4.8 | 0.18 | 0.18 | 0.18 | 92 | 1007.1 |
| 20260506180046 | 16 | 144 | 1.6 | 4.8 | 0.15 | 0.15 | 0.15 | 91 | 1007.0 |
| 20260506175529 | 16 | 143 | 1.6 | 6.4 | 0.15 | 0.15 | 0.15 | 91 | 1006.8 |
| 20260506175029 | 16 | 203 | 3.2 | 6.4 | 0.15 | 0.15 | 0.15 | 91 | 1007.1 |
| 20260506174546 | 16 | 150 | 1.6 | 3.2 | 0.15 | 0.15 | 0.15 | 90 | 1007.0 |
| 20260506174029 | 17 | 0 | 1.6 | 3.2 | 0.13 | 0.13 | 0.13 | 91 | 1007.0 |
| 20260506173530 | 17 | 146 | 0.0 | 4.8 | 0.13 | 0.13 | 0.13 | 91 | 1007.3 |
| 20260506173052 | 17 | 144 | 1.6 | 4.8 | 0.10 | 0.10 | 0.10 | 89 | 1007.6 |
| 20260506172529 | 17 | 148 | 0.0 | 4.8 | 0.08 | 0.08 | 0.08 | 89 | 1007.5 |
| 20260506172030 | 17 | 162 | 0.0 | 6.4 | 0.08 | 0.08 | 0.08 | 87 | 1007.7 |
| 20260506171538 | 17 | 155 | 1.6 | 6.4 | 0.05 | 0.05 | 0.05 | 85 | 1007.9 |
| 20260506171029 | 18 | 150 | 1.6 | 6.4 | 0.03 | 0.03 | 0.03 | 83 | 1008.1 |
| 20260506170531 | 18 | 147 | 0.0 | 3.2 | 0.00 | 0.00 | 0.00 | 84 | 1007.8 |
| 20260506170040 | 18 | 141 | 0.0 | 4.8 | 0.00 | 0.00 | 0.00 | 83 | 1007.8 |
| 20260506165529 | 18 | 141 | 0.0 | 4.8 | 0.00 | 0.00 | 0.00 | 80 | 1007.8 |
| 20260506165029 | 19 | 197 | 1.6 | 4.8 | 0.00 | 0.00 | 0.00 | 78 | 1007.9 |
| 20260506164545 | 19 | 169 | 0.0 | 3.2 | 0.00 | 0.00 | 0.00 | 78 | 1007.8 |
| 20260506164028 | 19 | 166 | 1.6 | 6.4 | 0.00 | 0.00 | 0.00 | 78 | 1007.8 |
| 20260506163528 | 19 | 153 | 1.6 | 6.4 | 0.00 | 0.00 | 0.00 | 77 | 1007.7 |
| 20260506163056 | 20 | 154 | 1.6 | 4.8 | 0.00 | 0.00 | 0.00 | 77 | 1007.7 |
| 20260506162528 | 20 | 124 | 1.6 | 4.8 | 0.00 | 0.00 | 0.00 | 77 | 1007.8 |
| 20260506162028 | 20 | 140 | 0.0 | 3.2 | 0.00 | 0.00 | 0.00 | 78 | 1007.8 |
| 20260506161544 | 19 | 204 | 0.0 | 6.4 | 0.00 | 0.00 | 0.00 | 79 | 1008.1 |
| 20260506161030 | 19 | 146 | 1.6 | 6.4 | 0.00 | 0.00 | 0.00 | 78 | 1008.2 |
| 20260506160530 | 19 | 137 | 1.6 | 6.4 | 0.00 | 0.00 | 0.00 | 78 | 1008.2 |
| 20260506160040 | 18 | 168 | 1.6 | 4.8 | 0.00 | 0.00 | 0.00 | 78 | 1008.4 |
| 20260506155529 | 18 | 134 | 1.6 | 3.2 | 0.00 | 0.00 | 0.00 | 78 | 1008.5 |
| 20260506155028 | 18 | 139 | 0.0 | 4.8 | 0.00 | 0.00 | 0.00 | 81 | 1008.5 |
| 20260506154548 | 18 | 134 | 0.0 | 4.8 | 0.00 | 0.00 | 0.00 | 80 | 1008.6 |
| 20260506154030 | 18 | 146 | 1.6 | 4.8 | 0.00 | 0.00 | 0.00 | 80 | 1008.8 |
| 20260506153530 | 18 | 140 | 0.0 | 3.2 | 0.00 | 0.00 | 0.00 | 81 | 1008.8 |
| 20260506153038 | 18 | 134 | 0.0 | 3.2 | 0.00 | 0.00 | 0.00 | 81 | 1008.7 |
| 20260506152529 | 17 | 139 | 1.6 | 6.4 | 0.00 | 0.00 | 0.00 | 80 | 1008.9 |
| 20260506152029 | 17 | 132 | 3.2 | 6.4 | 0.00 | 0.00 | 0.00 | 80 | 1009.0 |
| 20260506151540 | 18 | 125 | 1.6 | 6.4 | 0.00 | 0.00 | 0.00 | 80 | 1009.3 |
| 20260506151028 | 18 | 147 | 1.6 | 4.8 | 0.00 | 0.00 | 0.00 | 80 | 1009.3 |
| 20260506150529 | 17 | 204 | 1.6 | 4.8 | 0.00 | 0.00 | 0.00 | 80 | 1009.1 |